Tracking 27371 objects as of 8-Jun-2023
HD Live streaming from Space Station
objects crossing your sky now

STARLINK-4556

Track STARLINK-4556 now!
10-day predictions
STARLINK-4556 is classified as:


NORAD ID: 53578
Int'l Code: 2022-101BD
Perigee: 546.2 km
Apogee: 547.6 km
Inclination: 53.2 °
Period: 95.4 minutes
Semi major axis: 6917 km
RCS: Unknown
Launch date: August 19, 2022
Source: United States (US)
Launch site: AIR FORCE EASTERN TEST RANGE (AFETR)
Your satellite tracking list
Your tracking list is empty




NASA's NSSDC Master Catalog

Two Line Element Set (TLE):
1 53578U 22101BD  23158.32601562 -.00000582  00000-0 -18470-4 0  9999
2 53578  53.2167 251.4952 0000982  90.7938 269.3166 15.08837353 44528
Source of the keplerian elements: AFSPC